Погода в Южной Озереевке

Россия / Краснодарский край     44°40′45″N   37°37′37″E
темп.,
°C
ветер,
м/с
пор.,
м/с
влажн.,
%
обл.,
%
осадки,
мм/ч
давл.,
гПа
погр.,
м
3 марта, ср
ср300:00+4юз6107993 0.0 1024999
03:00+4зюз8128297 0.3 10221194
06:00+4з61090100 0.6 1020867
09:00+2сз51084100 1.5 1021834
12:00+5сз686479 0.1 10231263
15:00+5ссз576273 0.2 10231100
18:00+3ссз487013 0.0 1025774
21:00+2сз13767 0.0 1027135
4 марта, чт
чт400:00+2зсз127319 0.0 102793
03:00+1сз11759 0.0 102752
06:00+1зюз01740 0.0 102758
09:00+4юз24610 0.0 1027332
12:00+7юз565514 0.0 10261345
15:00+7юз686542 0.1 10241263
18:00+5ююз697151 0.1 10221026
21:00+4ююз6106942 0.1 1022884
5 марта, пт
пт500:00+4ююз710759 0.0 1021897
03:00+4ююз7117628 0.0 1020861
06:00+4ююз7118016 0.0 1020721
09:00+5ю7117817 0.0 1019799
12:00+7ю812706 0.0 1019851
15:00+8ю913683 0.0 1018821
18:00+7ю9147917 0.0 1017774
21:00+7ю8147950 0.0 1018680
6 марта, сб
сб600:00+7ю7137992 0.0 1017606
03:00+7ю7147853 0.0 1016732
06:00+7ю6128445 0.0 1016538
09:00+8ююз588271 0.0 1016558
12:00+10ю4578100 0.0 1016530
15:00+9юз2382100 0.0 1016462
18:00+6с3584100 0.1 1017389
21:00+2с51094100 1.4 1019516
7 марта, вс
вс700:00+1с5988100 0.9 1021807
03:00+1с6967100 0.9 10231020
06:00−1с596912 0.0 1025865
09:000с47496 0.0 10271296
12:00+2ссз46430 0.0 10271465
15:00+3сз45430 0.0 10251554
18:00+1зсз24502 0.0 1025776
21:000юз245615 0.0 1024679